Temp
71 71 70 70 69 68 68 67 67 67 66 66 66 65 65 64 64 64 64 64 64 64 64 64 64 64 62 60 60 61 63 65 66 66 66 66 66 65 65 64 64 63 63 62 60 60 59 60 61 60 60 60 60 60 60 60 59 57 56 55 54 53 51 50 49 48 46 45 45
70 70 70 69 69 68 68 67 67 67 66 66 66 66 65 65 64 64 64 64 64 64 64 64 63 62 61 59 60 60 61 62 64 65 65 65 65 65 64 64 64 64 63 62 60 60 60 60 60 59 58 57 57 56 55 55 56 55 54 53 52 52 51 50 49 47 46 45 44
71 70 70 70 69 69 68 67 67 66 66 66 66 66 65 65 65 65 64 64 64 63 63 63 62 61 60 59 59 60 60 61 63 65 65 65 64 64 64 64 64 63 63 62 61 61 61 61 60 59 58 56 56 55 54 52 53 53 53 52 51 51 50 49 47 46 45 45 45
71 70 70 70 69 68 68 68 67 66 66 66 65 65 65 65 65 65 64 63 61 61 62 63 62 61 60 59 59 59 60 60 63 64 65 65 64 64 64 64 63 63 63 63 62 62 62 61 60 59 58 57 56 55 53 51 52 52 51 49 50 50 50 49 47 46 45 46 46
70 70 70 70 69 69 69 68 67 66 66 66 65 65 65 64 64 63 63 63 63 63 62 61 61 61 60 59 59 59 59 59 62 64 65 64 63 63 63 63 63 62 62 63 63 62 62 60 58 57 56 56 55 54 53 52 52 51 50 49 49 49 48 48 47 47 47 47 47
71 70 70 70 69 69 69 68 67 66 66 66 65 65 64 65 64 63 63 63 63 61 60 59 60 60 59 58 58 59 59 59 61 64 65 64 64 63 62 62 63 63 63 62 62 62 61 60 57 55 55 55 54 54 53 53 52 52 51 50 49 49 49 49 48 48 48 49 48
71 70 70 70 69 69 68 68 67 66 66 66 64 64 64 64 63 63 63 63 62 61 60 61 61 60 60 58 59 59 59 59 60 62 64 64 63 63 62 62 62 62 62 62 61 61 60 58 56 55 54 54 54 53 53 53 53 52 51 50 49 49 49 49 48 49 49 49 48
71 70 70 69 69 68 68 67 66 66 66 66 65 64 63 63 62 62 62 62 62 61 61 62 60 60 60 59 59 59 59 59 60 61 62 63 62 62 62 62 62 62 61 61 60 59 58 57 56 55 54 54 54 53 53 53 53 52 51 50 49 48 48 48 48 48 49 49 48
71 70 70 69 68 68 67 66 66 65 65 65 64 63 63 62 62 62 62 62 62 61 61 61 60 59 59 59 59 59 59 60 60 61 62 63 62 62 62 62 61 61 60 60 59 58 57 56 55 55 55 54 54 53 53 53 53 52 51 49 48 48 47 48 47 48 48 48 47
70 70 69 69 68 67 66 66 65 65 65 64 63 63 63 62 62 62 63 63 62 61 61 61 60 59 59 59 59 59 60 60 61 62 62 62 62 62 61 61 60 59 59 58 58 57 57 56 55 54 54 54 54 53 53 53 52 51 50 49 48 47 47 47 47 47 47 47 46
69 69 69 69 67 66 66 65 65 65 64 64 63 62 62 63 62 63 63 63 62 61 60 60 60 59 59 59 59 59 60 61 62 62 62 62 62 61 61 60 59 58 57 57 57 57 56 55 54 54 54 53 53 53 52 52 51 50 49 48 48 47 46 45 46 46 46 46 45
69 69 69 68 67 66 65 65 65 64 64 63 62 62 62 63 62 62 62 62 61 60 60 59 60 60 60 60 59 59 60 60 61 61 61 61 61 61 60 59 58 57 57 56 56 56 56 55 54 53 53 52 53 52 52 51 51 50 48 48 47 47 46 45 45 45 45 45 45
69 68 68 67 66 66 65 65 65 64 64 63 62 63 63 63 62 62 62 61 60 60 60 59 60 60 60 60 60 59 60 60 60 61 61 60 60 60 59 58 57 57 56 56 56 56 56 54 54 53 53 52 52 51 51 50 50 49 48 47 47 46 45 45 45 45 44 44 44
68 68 67 67 66 65 65 65 65 64 64 62 63 63 63 62 62 62 62 61 60 60 60 59 60 60 61 60 60 59 59 60 60 60 60 60 59 59 58 57 56 56 56 55 55 55 55 54 53 53 52 51 51 50 50 50 50 49 48 47 46 46 45 45 45 44 44 43 43
68 67 67 66 65 65 65 65 65 64 63 62 63 63 63 63 63 63 62 61 60 60 60 60 61 60 60 60 59 59 59 60 60 59 59 59 58 58 57 56 56 55 55 55 54 54 54 54 53 53 52 51 50 50 50 50 49 48 48 47 46 46 45 45 44 44 43 42 42
67 67 66 66 65 65 65 65 65 64 63 63 63 63 63 63 63 62 62 61 61 61 61 61 61 60 60 59 59 59 60 60 60 59 58 58 57 57 56 55 55 54 54 54 54 53 53 53 53 52 51 50 50 50 49 49 48 48 47 47 47 46 45 45 44 43 43 42 42
66 66 66 66 65 65 65 65 65 64 63 63 63 63 63 63 63 62 62 61 62 62 61 61 61 61 60 59 59 60 60 60 59 59 58 57 57 56 55 55 54 54 54 53 53 53 53 52 52 51 51 50 50 49 48 48 47 47 47 47 46 46 45 45 44 43 43 43 43
66 66 66 65 65 65 65 65 64 64 63 63 63 63 63 63 63 62 62 62 63 63 62 61 61 61 60 59 59 60 60 59 59 58 58 57 56 56 55 55 54 54 54 53 53 52 52 51 51 51 50 50 49 48 48 47 47 47 46 46 46 45 45 45 44 43 43 43 43
66 66 65 65 65 65 64 64 63 63 63 63 64 63 63 63 62 62 63 63 63 63 62 61 60 60 59 59 59 59 59 59 58 58 57 57 56 56 55 55 54 54 53 53 52 52 51 50 50 50 49 49 48 47 47 47 46 46 46 45 45 45 44 44 43 43 43 42 42
66 66 65 65 65 65 64 64 63 63 64 64 63 63 62 62 62 62 63 63 63 62 61 60 59 59 58 58 58 59 59 59 58 57 57 57 56 56 55 54 53 53 52 52 52 51 50 50 49 49 49 48 48 47 47 46 46 46 45 45 45 44 44 44 43 43 42 42 41
66 66 66 65 65 65 64 64 64 64 64 64 63 62 62 62 62 62 63 63 62 61 60 59 58 58 57 58 58 58 58 58 58 57 57 56 55 54 53 53 52 52 51 51 51 50 50 49 49 49 48 48 48 47 47 46 46 45 45 45 44 44 44 44 43 43 42 42 41
66 66 66 65 65 64 64 64 64 64 63 63 63 62 62 62 62 62 62 62 61 60 59 58 58 57 57 58 58 57 57 57 57 57 56 55 54 53 53 52 52 51 51 50 50 50 49 49 49 49 48 48 47 47 47 46 45 45 44 44 44 44 44 43 43 42 42 42 41
66 66 66 65 64 64 63 64 64 63 63 63 62 62 61 61 62 62 61 61 60 59 59 58 58 58 58 58 57 57 57 56 56 55 55 54 53 53 53 53 52 51 51 50 50 49 49 49 48 48 47 47 46 46 46 46 45 45 44 44 43 43 43 43 43 42 42 42 40
66 66 66 65 64 64 63 64 63 63 63 62 61 61 61 61 61 61 60 60 59 59 59 59 59 59 58 58 57 56 56 55 54 54 53 53 53 53 52 52 51 50 50 49 49 49 49 48 47 47 46 46 46 46 46 45 44 44 44 43 43 43 42 42 42 42 41 40 37
66 66 65 65 64 63 64 63 63 62 62 61 61 60 60 60 60 60 60 59 59 59 59 59 58 58 57 57 56 56 55 54 53 53 52 52 52 52 52 51 50 50 50 50 51 51 50 49 48 47 46 46 46 46 45 43 44 44 44 43 43 42 42 42 42 41 40 37 35
65 65 64 64 63 63 63 63 62 62 61 61 60 60 60 60 60 60 60 59 59 59 58 58 57 57 56 56 55 55 54 54 53 52 52 51 51 51 51 50 50 50 50 51 51 51 51 50 49 48 47 46 46 45 43 42 43 43 43 43 42 42 41 41 41 39 38 35 34
65 64 64 63 63 63 63 62 62 61 60 60 59 59 59 60 60 60 59 59 58 57 57 56 56 56 56 56 55 54 54 53 53 52 52 51 50 50 50 50 50 50 50 51 52 51 51 51 50 49 47 45 44 43 42 42 41 41 42 43 41 41 41 40 39 38 37 35 34
64 64 63 63 63 62 62 62 61 60 59 59 59 59 59 60 59 59 58 57 57 56 56 56 56 56 56 55 54 54 53 53 52 52 51 51 50 50 49 49 50 50 51 52 52 52 51 51 50 49 47 45 43 41 39 39 39 41 42 42 41 40 39 38 37 36 35 34 33
63 63 63 62 62 61 61 60 60 59 59 59 59 59 59 59 58 57 56 56 55 55 55 55 56 56 55 54 53 52 52 51 51 51 50 50 49 49 49 49 49 50 51 52 52 52 51 51 50 49 48 46 43 41 40 40 41 42 42 42 40 38 37 37 35 34 33 32 31
63 63 62 62 61 60 60 59 59 59 59 59 59 59 58 57 56 56 56 55 55 55 55 55 55 55 54 53 52 51 51 50 50 50 49 49 49 49 49 49 49 50 51 52 52 51 51 51 50 49 48 47 44 42 40 39 39 40 40 41 39 37 36 36 33 32 31 31 30
62 62 62 61 60 59 59 59 59 59 59 59 58 57 57 56 55 55 55 55 55 55 55 54 54 53 52 51 51 50 49 49 49 49 49 49 49 49 49 49 49 49 50 52 52 51 51 50 50 49 48 47 45 42 40 38 37 37 37 39 37 36 34 33 31 30 30 29 30
62 61 61 60 59 59 59 59 59 59 58 58 57 56 56 55 55 55 55 55 55 54 54 53 52 51 50 50 49 49 48 48 48 49 49 49 48 48 48 48 48 49 50 52 51 51 51 50 50 49 48 47 44 41 38 38 37 37 37 38 37 36 34 33 30 29 29 29 30
61 61 60 59 59 59 59 59 58 58 57 57 56 56 55 55 55 55 55 54 54 53 52 52 51 50 49 49 48 48 48 48 48 48 49 48 48 48 48 48 48 49 51 51 51 51 51 50 50 48 47 45 42 39 37 38 37 37 37 37 37 36 34 32 32 31 31 31 32
61 60 59 59 59 58 58 58 57 57 56 56 55 55 54 54 54 54 54 54 53 53 52 52 51 50 49 48 48 48 48 48 48 48 48 48 48 47 47 48 49 50 51 51 51 51 50 50 49 48 46 44 41 39 37 37 37 37 37 37 36 36 35 35 34 34 34 33 34
60 59 59 58 58 58 57 57 56 56 55 55 54 54 54 54 53 53 53 53 53 52 52 51 50 49 49 48 48 47 47 47 47 47 47 47 47 47 47 47 49 50 51 51 51 51 50 49 48 47 45 43 40 38 37 37 37 37 36 36 36 36 35 35 35 34 34 33 33
60 59 58 58 57 57 56 56 56 55 54 54 53 53 53 53 53 53 53 52 52 51 50 49 49 48 47 47 47 47 47 46 46 47 47 47 47 47 47 47 48 49 50 51 50 50 49 48 47 46 44 41 39 38 37 38 38 37 36 36 35 35 35 35 34 34 34 33 33
59 58 58 57 56 56 56 55 55 54 54 53 53 53 52 52 52 52 52 51 50 49 48 48 47 47 46 46 46 46 46 46 46 47 47 47 47 47 46 46 47 48 49 50 50 49 48 47 46 44 42 39 38 37 38 38 38 37 36 35 34 34 34 34 34 34 34 34 35
58 58 57 56 56 56 55 55 55 54 53 53 53 52 52 52 51 51 51 51 49 48 47 47 46 46 46 46 46 46 46 47 47 47 47 47 47 47 46 45 45 46 48 49 49 48 48 47 45 44 41 38 37 37 37 37 37 36 35 35 34 33 32 33 34 34 35 37 40
58 57 57 56 56 55 55 55 54 53 53 52 52 52 52 51 51 51 51 50 49 48 47 46 46 46 46 46 46 46 46 47 47 47 47 47 47 47 46 44 44 45 47 49 48 48 47 46 45 44 42 39 37 37 37 36 36 35 35 34 34 33 32 32 33 34 35 38 43
57 57 56 56 56 55 55 54 54 53 53 52 52 51 51 51 51 50 50 50 49 48 47 46 46 46 46 46 46 46 46 46 46 47 47 47 47 47 46 44 43 44 46 48 48 47 46 46 45 44 42 38 37 37 37 36 35 35 34 34 34 33 33 32 33 33 34 34 40
57 57 56 56 55 55 54 53 53 53 52 52 51 51 51 50 50 50 49 48 48 47 47 46 46 46 46 47 46 46 45 45 45 46 46 46 46 46 46 44 42 43 44 46 47 47 46 46 45 44 42 39 37 37 37 36 35 34 33 33 33 33 33 32 32 33 32 31 33
MSLP
1007.17 1007.33 1007.53 1007.73 1007.93 1008.21 1008.41 1008.53 1008.69 1008.89 1009.05 1009.25 1009.41 1009.61 1009.77 1010.05 1010.21 1010.33 1010.49 1010.65 1010.81 1010.97 1011.09 1011.25 1011.37 1011.53 1011.73 1011.93 1012.05 1012.21 1012.33 1012.41 1012.53 1012.69 1012.85 1013.01 1013.21 1013.37 1013.57 1013.77 1013.97 1014.21 1014.49 1014.69 1014.93 1015.21 1015.37 1015.49 1015.65 1015.77 1015.93 1016.05 1016.21 1016.33 1016.45 1016.53 1016.69 1016.89 1017.05 1017.21 1017.33 1017.49 1017.65 1017.85 1018.05 1018.17 1018.33 1018.45 1018.49
1006.93 1007.09 1007.29 1007.49 1007.77 1008.01 1008.21 1008.41 1008.61 1008.77 1008.93 1009.05 1009.21 1009.37 1009.61 1009.81 1010.01 1010.21 1010.33 1010.49 1010.61 1010.77 1011.01 1011.17 1011.33 1011.49 1011.65 1011.85 1011.97 1012.09 1012.25 1012.41 1012.49 1012.61 1012.77 1012.97 1013.13 1013.33 1013.49 1013.73 1013.93 1014.13 1014.33 1014.57 1014.81 1015.05 1015.21 1015.41 1015.57 1015.77 1015.93 1016.05 1016.21 1016.33 1016.45 1016.49 1016.61 1016.81 1017.01 1017.17 1017.25 1017.37 1017.53 1017.73 1017.93 1018.05 1018.25 1018.41 1018.49
1006.69 1006.93 1007.09 1007.33 1007.61 1007.81 1008.05 1008.21 1008.41 1008.57 1008.73 1008.93 1009.09 1009.29 1009.49 1009.65 1009.85 1010.05 1010.21 1010.37 1010.53 1010.73 1010.93 1011.13 1011.25 1011.41 1011.61 1011.77 1011.93 1012.05 1012.21 1012.33 1012.45 1012.61 1012.73 1012.93 1013.09 1013.29 1013.49 1013.65 1013.85 1014.05 1014.29 1014.49 1014.69 1014.89 1015.05 1015.29 1015.45 1015.65 1015.81 1016.05 1016.21 1016.33 1016.49 1016.57 1016.61 1016.77 1016.97 1017.09 1017.21 1017.33 1017.45 1017.61 1017.81 1018.05 1018.25 1018.41 1018.49
1006.49 1006.73 1006.93 1007.13 1007.33 1007.53 1007.69 1007.89 1008.13 1008.33 1008.57 1008.77 1009.01 1009.21 1009.37 1009.57 1009.77 1009.93 1010.09 1010.33 1010.49 1010.69 1010.85 1011.01 1011.21 1011.33 1011.53 1011.73 1011.89 1012.05 1012.17 1012.33 1012.41 1012.57 1012.69 1012.85 1013.05 1013.21 1013.41 1013.65 1013.89 1014.09 1014.25 1014.45 1014.61 1014.77 1014.97 1015.17 1015.33 1015.53 1015.77 1015.97 1016.17 1016.33 1016.49 1016.61 1016.69 1016.81 1016.93 1017.05 1017.17 1017.29 1017.37 1017.49 1017.65 1017.93 1018.21 1018.37 1018.45
1006.29 1006.49 1006.65 1006.81 1007.05 1007.21 1007.41 1007.65 1007.93 1008.21 1008.45 1008.69 1008.93 1009.13 1009.33 1009.49 1009.65 1009.81 1010.05 1010.25 1010.41 1010.57 1010.73 1010.93 1011.09 1011.25 1011.45 1011.65 1011.81 1011.97 1012.13 1012.29 1012.37 1012.49 1012.61 1012.81 1013.01 1013.17 1013.37 1013.61 1013.81 1014.05 1014.21 1014.37 1014.53 1014.69 1014.89 1015.09 1015.33 1015.53 1015.69 1015.93 1016.09 1016.29 1016.41 1016.57 1016.69 1016.81 1016.97 1017.09 1017.21 1017.33 1017.41 1017.49 1017.69 1017.93 1018.13 1018.29 1018.37
1006.01 1006.21 1006.37 1006.57 1006.81 1007.05 1007.29 1007.53 1007.81 1008.09 1008.33 1008.57 1008.81 1009.05 1009.21 1009.33 1009.53 1009.73 1009.93 1010.09 1010.29 1010.49 1010.69 1010.85 1011.05 1011.21 1011.45 1011.61 1011.77 1011.93 1012.09 1012.25 1012.37 1012.45 1012.57 1012.77 1012.93 1013.17 1013.37 1013.53 1013.77 1013.97 1014.17 1014.33 1014.49 1014.65 1014.85 1015.09 1015.37 1015.61 1015.77 1015.89 1016.05 1016.21 1016.33 1016.49 1016.65 1016.81 1017.01 1017.21 1017.29 1017.33 1017.45 1017.57 1017.77 1017.93 1018.09 1018.21 1018.33
1005.73 1005.97 1006.21 1006.41 1006.69 1006.97 1007.21 1007.41 1007.69 1007.97 1008.21 1008.45 1008.65 1008.85 1009.05 1009.21 1009.41 1009.61 1009.77 1009.93 1010.21 1010.49 1010.65 1010.81 1011.01 1011.17 1011.37 1011.57 1011.77 1011.93 1012.09 1012.21 1012.33 1012.45 1012.53 1012.69 1012.93 1013.21 1013.37 1013.57 1013.77 1013.93 1014.05 1014.25 1014.45 1014.61 1014.85 1015.13 1015.41 1015.65 1015.77 1015.93 1016.05 1016.21 1016.33 1016.45 1016.61 1016.77 1017.01 1017.17 1017.29 1017.33 1017.45 1017.61 1017.77 1017.93 1018.05 1018.17 1018.29
1005.57 1005.77 1006.05 1006.25 1006.53 1006.81 1007.05 1007.33 1007.61 1007.89 1008.09 1008.29 1008.49 1008.69 1008.85 1009.05 1009.33 1009.53 1009.77 1009.93 1010.21 1010.37 1010.57 1010.73 1010.93 1011.09 1011.29 1011.49 1011.69 1011.89 1012.05 1012.21 1012.33 1012.45 1012.57 1012.69 1012.93 1013.17 1013.37 1013.61 1013.77 1013.93 1014.05 1014.21 1014.45 1014.69 1014.93 1015.17 1015.37 1015.61 1015.77 1015.89 1016.05 1016.21 1016.33 1016.41 1016.61 1016.77 1016.97 1017.17 1017.33 1017.41 1017.49 1017.65 1017.77 1017.93 1018.05 1018.17 1018.29
1005.49 1005.69 1005.93 1006.17 1006.41 1006.65 1006.93 1007.21 1007.45 1007.69 1007.93 1008.17 1008.33 1008.53 1008.77 1009.01 1009.25 1009.49 1009.69 1009.93 1010.09 1010.29 1010.49 1010.61 1010.85 1011.05 1011.21 1011.41 1011.65 1011.81 1011.97 1012.17 1012.33 1012.45 1012.57 1012.69 1012.93 1013.17 1013.37 1013.57 1013.77 1013.93 1014.13 1014.29 1014.49 1014.73 1014.93 1015.21 1015.37 1015.49 1015.65 1015.81 1016.01 1016.21 1016.33 1016.41 1016.61 1016.77 1017.01 1017.21 1017.37 1017.49 1017.61 1017.73 1017.85 1017.93 1018.05 1018.21 1018.37
1005.33 1005.53 1005.77 1006.05 1006.33 1006.57 1006.81 1007.09 1007.33 1007.57 1007.81 1008.05 1008.29 1008.49 1008.73 1008.93 1009.21 1009.37 1009.61 1009.77 1010.01 1010.21 1010.41 1010.61 1010.81 1011.01 1011.21 1011.41 1011.57 1011.77 1011.93 1012.09 1012.25 1012.41 1012.57 1012.73 1012.89 1013.13 1013.37 1013.57 1013.77 1014.01 1014.21 1014.41 1014.57 1014.77 1014.97 1015.21 1015.37 1015.53 1015.65 1015.81 1016.01 1016.17 1016.33 1016.45 1016.61 1016.85 1017.09 1017.29 1017.45 1017.61 1017.77 1017.89 1017.97 1018.05 1018.21 1018.33 1018.49
1005.05 1005.33 1005.61 1005.93 1006.21 1006.45 1006.77 1007.05 1007.33 1007.53 1007.77 1008.01 1008.29 1008.49 1008.69 1008.93 1009.09 1009.29 1009.49 1009.69 1009.97 1010.21 1010.41 1010.53 1010.77 1010.97 1011.17 1011.37 1011.57 1011.73 1011.89 1012.05 1012.21 1012.33 1012.53 1012.73 1012.93 1013.09 1013.33 1013.57 1013.77 1014.01 1014.21 1014.41 1014.57 1014.77 1014.97 1015.17 1015.37 1015.57 1015.73 1015.89 1016.05 1016.21 1016.33 1016.49 1016.69 1016.93 1017.17 1017.33 1017.49 1017.69 1017.85 1018.01 1018.13 1018.21 1018.33 1018.45 1018.57
1004.93 1005.21 1005.49 1005.77 1006.05 1006.37 1006.69 1007.01 1007.25 1007.49 1007.77 1007.97 1008.21 1008.45 1008.61 1008.81 1009.05 1009.25 1009.49 1009.73 1009.97 1010.17 1010.33 1010.53 1010.73 1010.93 1011.09 1011.33 1011.53 1011.73 1011.89 1012.01 1012.21 1012.33 1012.57 1012.77 1012.93 1013.17 1013.37 1013.61 1013.81 1014.01 1014.21 1014.37 1014.53 1014.77 1014.93 1015.13 1015.33 1015.53 1015.77 1015.93 1016.09 1016.25 1016.45 1016.61 1016.77 1017.01 1017.21 1017.49 1017.65 1017.77 1017.93 1018.13 1018.21 1018.33 1018.37 1018.49 1018.61
1004.85 1005.17 1005.45 1005.73 1006.05 1006.33 1006.61 1006.93 1007.21 1007.45 1007.73 1007.93 1008.17 1008.33 1008.57 1008.77 1009.01 1009.21 1009.45 1009.69 1009.93 1010.13 1010.33 1010.53 1010.69 1010.89 1011.05 1011.29 1011.49 1011.69 1011.85 1012.01 1012.21 1012.37 1012.57 1012.77 1013.01 1013.21 1013.45 1013.65 1013.85 1014.05 1014.25 1014.41 1014.53 1014.69 1014.93 1015.09 1015.33 1015.49 1015.77 1016.01 1016.17 1016.33 1016.49 1016.61 1016.81 1017.05 1017.29 1017.49 1017.69 1017.89 1018.05 1018.17 1018.29 1018.37 1018.49 1018.53 1018.65
1004.77 1005.09 1005.41 1005.69 1006.01 1006.33 1006.57 1006.85 1007.09 1007.37 1007.65 1007.89 1008.09 1008.29 1008.49 1008.77 1008.97 1009.17 1009.37 1009.65 1009.89 1010.09 1010.33 1010.53 1010.69 1010.85 1011.05 1011.25 1011.49 1011.65 1011.85 1012.01 1012.21 1012.41 1012.61 1012.81 1013.05 1013.33 1013.53 1013.73 1013.89 1014.05 1014.29 1014.45 1014.57 1014.73 1014.93 1015.13 1015.33 1015.49 1015.73 1015.97 1016.21 1016.41 1016.57 1016.69 1016.89 1017.09 1017.33 1017.57 1017.77 1017.93 1018.09 1018.21 1018.33 1018.45 1018.49 1018.61 1018.73
1004.81 1005.05 1005.33 1005.65 1005.93 1006.21 1006.49 1006.77 1007.05 1007.29 1007.57 1007.81 1008.05 1008.21 1008.49 1008.73 1008.93 1009.13 1009.33 1009.61 1009.85 1010.05 1010.29 1010.49 1010.73 1010.89 1011.05 1011.21 1011.41 1011.65 1011.85 1012.05 1012.21 1012.41 1012.65 1012.93 1013.13 1013.37 1013.61 1013.77 1013.93 1014.13 1014.33 1014.49 1014.65 1014.81 1014.97 1015.17 1015.37 1015.57 1015.77 1016.01 1016.29 1016.49 1016.65 1016.81 1017.01 1017.21 1017.41 1017.61 1017.77 1017.93 1018.09 1018.25 1018.37 1018.49 1018.57 1018.69 1018.81
1004.77 1005.01 1005.29 1005.61 1005.85 1006.13 1006.41 1006.69 1006.93 1007.21 1007.49 1007.73 1007.93 1008.21 1008.41 1008.69 1008.93 1009.13 1009.33 1009.61 1009.81 1010.05 1010.29 1010.49 1010.69 1010.93 1011.13 1011.29 1011.45 1011.65 1011.89 1012.05 1012.29 1012.49 1012.73 1012.97 1013.21 1013.45 1013.65 1013.81 1013.97 1014.17 1014.33 1014.53 1014.77 1014.93 1015.13 1015.29 1015.45 1015.65 1015.89 1016.13 1016.33 1016.61 1016.77 1016.97 1017.17 1017.33 1017.49 1017.65 1017.85 1018.01 1018.13 1018.29 1018.41 1018.49 1018.61 1018.73 1018.85
1004.65 1004.93 1005.21 1005.49 1005.77 1006.05 1006.29 1006.53 1006.81 1007.13 1007.41 1007.65 1007.89 1008.13 1008.33 1008.61 1008.85 1009.09 1009.33 1009.57 1009.77 1010.01 1010.29 1010.49 1010.69 1010.93 1011.21 1011.37 1011.57 1011.73 1011.93 1012.13 1012.33 1012.57 1012.77 1013.01 1013.21 1013.45 1013.65 1013.85 1014.01 1014.21 1014.41 1014.61 1014.81 1015.05 1015.25 1015.49 1015.65 1015.81 1016.05 1016.25 1016.49 1016.69 1016.93 1017.09 1017.29 1017.49 1017.65 1017.77 1017.93 1018.05 1018.21 1018.33 1018.49 1018.57 1018.65 1018.77 1018.97
1004.61 1004.85 1005.13 1005.37 1005.65 1005.93 1006.17 1006.41 1006.73 1007.05 1007.33 1007.53 1007.85 1008.05 1008.29 1008.53 1008.81 1009.05 1009.29 1009.49 1009.65 1009.93 1010.21 1010.49 1010.73 1010.93 1011.21 1011.45 1011.65 1011.81 1012.01 1012.21 1012.41 1012.61 1012.81 1013.05 1013.21 1013.45 1013.65 1013.89 1014.09 1014.29 1014.49 1014.65 1014.89 1015.13 1015.37 1015.61 1015.77 1016.01 1016.21 1016.45 1016.61 1016.85 1017.05 1017.25 1017.41 1017.57 1017.73 1017.89 1018.05 1018.17 1018.25 1018.37 1018.49 1018.61 1018.77 1018.93 1019.09
1004.49 1004.77 1005.05 1005.29 1005.53 1005.81 1006.09 1006.33 1006.61 1006.93 1007.21 1007.49 1007.77 1008.05 1008.29 1008.49 1008.77 1009.01 1009.25 1009.49 1009.65 1009.85 1010.17 1010.49 1010.77 1011.01 1011.21 1011.49 1011.69 1011.93 1012.09 1012.29 1012.49 1012.65 1012.89 1013.05 1013.25 1013.49 1013.73 1013.97 1014.21 1014.41 1014.61 1014.77 1014.97 1015.21 1015.49 1015.73 1015.93 1016.17 1016.33 1016.61 1016.81 1017.01 1017.21 1017.33 1017.49 1017.69 1017.85 1017.97 1018.13 1018.25 1018.33 1018.49 1018.61 1018.77 1018.93 1019.05 1019.21
1004.33 1004.61 1004.93 1005.21 1005.49 1005.77 1006.05 1006.33 1006.61 1006.89 1007.17 1007.49 1007.77 1008.05 1008.29 1008.49 1008.73 1008.97 1009.21 1009.45 1009.65 1009.93 1010.21 1010.49 1010.81 1011.09 1011.33 1011.53 1011.77 1012.01 1012.21 1012.33 1012.53 1012.77 1012.93 1013.17 1013.37 1013.61 1013.85 1014.09 1014.33 1014.49 1014.69 1014.93 1015.13 1015.37 1015.65 1015.89 1016.09 1016.29 1016.49 1016.69 1016.93 1017.13 1017.33 1017.49 1017.65 1017.81 1017.97 1018.09 1018.21 1018.33 1018.49 1018.61 1018.77 1018.93 1019.05 1019.17 1019.29
1004.21 1004.49 1004.81 1005.13 1005.45 1005.77 1006.05 1006.33 1006.61 1006.89 1007.17 1007.45 1007.73 1008.01 1008.29 1008.53 1008.77 1008.97 1009.21 1009.41 1009.73 1010.05 1010.33 1010.57 1010.85 1011.17 1011.41 1011.65 1011.85 1012.09 1012.29 1012.49 1012.69 1012.85 1013.05 1013.33 1013.57 1013.77 1013.97 1014.21 1014.41 1014.61 1014.85 1015.05 1015.33 1015.53 1015.77 1016.01 1016.21 1016.37 1016.57 1016.77 1017.01 1017.21 1017.45 1017.65 1017.81 1017.97 1018.09 1018.21 1018.37 1018.53 1018.65 1018.81 1018.93 1019.09 1019.21 1019.25 1019.33
1004.09 1004.45 1004.77 1005.09 1005.45 1005.77 1006.05 1006.33 1006.61 1006.93 1007.21 1007.49 1007.77 1008.05 1008.33 1008.61 1008.77 1008.97 1009.21 1009.49 1009.81 1010.13 1010.41 1010.61 1010.89 1011.17 1011.45 1011.65 1011.93 1012.17 1012.37 1012.61 1012.81 1013.01 1013.21 1013.49 1013.73 1013.93 1014.13 1014.33 1014.53 1014.77 1015.05 1015.29 1015.49 1015.69 1015.93 1016.13 1016.29 1016.49 1016.69 1016.93 1017.17 1017.33 1017.53 1017.77 1017.93 1018.09 1018.25 1018.41 1018.53 1018.69 1018.85 1018.97 1019.09 1019.21 1019.29 1019.33 1019.45
1004.05 1004.37 1004.73 1005.09 1005.45 1005.77 1006.05 1006.33 1006.65 1006.93 1007.21 1007.53 1007.81 1008.13 1008.41 1008.61 1008.85 1009.09 1009.33 1009.65 1009.93 1010.21 1010.49 1010.77 1010.97 1011.21 1011.41 1011.65 1011.93 1012.21 1012.49 1012.77 1012.97 1013.21 1013.45 1013.65 1013.89 1014.09 1014.29 1014.45 1014.69 1014.93 1015.21 1015.37 1015.61 1015.77 1016.01 1016.21 1016.49 1016.65 1016.85 1017.05 1017.29 1017.49 1017.69 1017.89 1018.05 1018.21 1018.37 1018.57 1018.73 1018.85 1019.01 1019.09 1019.21 1019.29 1019.37 1019.45 1019.53
1004.01 1004.33 1004.69 1005.09 1005.49 1005.77 1006.09 1006.37 1006.69 1006.97 1007.25 1007.57 1007.89 1008.21 1008.49 1008.69 1008.97 1009.21 1009.49 1009.77 1010.05 1010.33 1010.61 1010.89 1011.09 1011.33 1011.57 1011.77 1012.05 1012.29 1012.57 1012.85 1013.13 1013.41 1013.65 1013.81 1014.05 1014.21 1014.45 1014.65 1014.89 1015.09 1015.33 1015.49 1015.65 1015.85 1016.05 1016.33 1016.61 1016.85 1017.05 1017.21 1017.45 1017.65 1017.81 1017.97 1018.17 1018.33 1018.49 1018.69 1018.85 1019.01 1019.17 1019.25 1019.33 1019.37 1019.49 1019.61 1019.69
1003.97 1004.29 1004.65 1005.13 1005.49 1005.81 1006.09 1006.41 1006.69 1007.01 1007.33 1007.65 1007.93 1008.25 1008.53 1008.77 1009.05 1009.33 1009.61 1009.93 1010.17 1010.41 1010.69 1010.97 1011.21 1011.49 1011.73 1011.97 1012.21 1012.41 1012.65 1012.93 1013.21 1013.49 1013.77 1013.97 1014.21 1014.37 1014.61 1014.85 1015.05 1015.21 1015.41 1015.65 1015.77 1015.93 1016.17 1016.37 1016.69 1016.93 1017.21 1017.41 1017.61 1017.77 1017.97 1018.13 1018.29 1018.45 1018.61 1018.77 1018.97 1019.13 1019.25 1019.33 1019.41 1019.49 1019.61 1019.73 1019.81
1004.05 1004.33 1004.69 1005.09 1005.49 1005.77 1006.09 1006.37 1006.69 1007.05 1007.37 1007.73 1008.05 1008.33 1008.61 1008.89 1009.17 1009.41 1009.69 1010.01 1010.29 1010.53 1010.81 1011.13 1011.37 1011.65 1011.89 1012.09 1012.33 1012.61 1012.81 1013.05 1013.29 1013.57 1013.81 1014.05 1014.29 1014.53 1014.73 1014.93 1015.17 1015.33 1015.53 1015.73 1015.93 1016.13 1016.33 1016.57 1016.77 1017.01 1017.25 1017.49 1017.73 1017.93 1018.17 1018.33 1018.45 1018.61 1018.77 1018.93 1019.05 1019.21 1019.33 1019.49 1019.57 1019.65 1019.77 1019.85 1019.93
1004.09 1004.41 1004.73 1005.09 1005.49 1005.77 1006.09 1006.37 1006.73 1007.09 1007.49 1007.81 1008.17 1008.45 1008.73 1008.97 1009.25 1009.53 1009.81 1010.17 1010.49 1010.73 1011.01 1011.25 1011.49 1011.77 1012.05 1012.25 1012.49 1012.73 1012.97 1013.21 1013.49 1013.69 1013.89 1014.09 1014.33 1014.61 1014.85 1015.05 1015.29 1015.49 1015.69 1015.89 1016.05 1016.25 1016.49 1016.73 1016.93 1017.17 1017.41 1017.65 1017.85 1018.05 1018.29 1018.49 1018.69 1018.81 1018.93 1019.05 1019.21 1019.33 1019.41 1019.53 1019.69 1019.81 1019.93 1020.01 1020.05
1004.17 1004.49 1004.77 1005.13 1005.53 1005.85 1006.17 1006.49 1006.85 1007.21 1007.61 1007.89 1008.21 1008.49 1008.77 1009.05 1009.33 1009.65 1009.97 1010.29 1010.61 1010.93 1011.21 1011.45 1011.65 1011.89 1012.13 1012.41 1012.65 1012.89 1013.09 1013.33 1013.61 1013.81 1014.05 1014.25 1014.49 1014.73 1014.97 1015.21 1015.45 1015.65 1015.85 1016.01 1016.21 1016.41 1016.61 1016.85 1017.09 1017.33 1017.53 1017.77 1018.05 1018.29 1018.49 1018.65 1018.85 1018.93 1019.05 1019.17 1019.33 1019.45 1019.53 1019.65 1019.81 1019.93 1020.05 1020.17 1020.25
1004.25 1004.53 1004.85 1005.21 1005.57 1005.89 1006.21 1006.57 1006.93 1007.29 1007.65 1007.93 1008.21 1008.53 1008.89 1009.17 1009.49 1009.81 1010.13 1010.41 1010.73 1011.05 1011.29 1011.53 1011.77 1012.01 1012.29 1012.57 1012.81 1013.05 1013.25 1013.49 1013.77 1013.97 1014.21 1014.41 1014.61 1014.89 1015.13 1015.33 1015.65 1015.81 1015.97 1016.09 1016.33 1016.53 1016.77 1017.01 1017.25 1017.49 1017.69 1017.93 1018.21 1018.41 1018.61 1018.73 1018.89 1019.05 1019.17 1019.25 1019.41 1019.57 1019.69 1019.77 1019.93 1020.05 1020.21 1020.33 1020.45
1004.37 1004.65 1004.97 1005.33 1005.65 1006.05 1006.37 1006.73 1007.01 1007.33 1007.65 1008.01 1008.33 1008.65 1008.97 1009.33 1009.65 1009.97 1010.25 1010.57 1010.81 1011.05 1011.33 1011.57 1011.81 1012.13 1012.45 1012.73 1012.93 1013.17 1013.41 1013.69 1013.93 1014.13 1014.33 1014.57 1014.81 1015.09 1015.33 1015.57 1015.77 1015.97 1016.17 1016.33 1016.49 1016.69 1016.93 1017.21 1017.41 1017.65 1017.89 1018.09 1018.29 1018.49 1018.69 1018.89 1019.01 1019.17 1019.29 1019.41 1019.53 1019.69 1019.85 1019.93 1020.09 1020.21 1020.33 1020.49 1020.57
1004.49 1004.77 1005.05 1005.45 1005.77 1006.13 1006.49 1006.81 1007.09 1007.41 1007.73 1008.05 1008.37 1008.73 1009.09 1009.45 1009.77 1010.05 1010.33 1010.61 1010.93 1011.17 1011.41 1011.65 1011.93 1012.25 1012.57 1012.81 1013.05 1013.33 1013.61 1013.89 1014.09 1014.29 1014.49 1014.69 1015.01 1015.29 1015.53 1015.77 1015.97 1016.17 1016.33 1016.49 1016.65 1016.89 1017.09 1017.33 1017.57 1017.81 1018.05 1018.25 1018.45 1018.61 1018.81 1019.01 1019.17 1019.33 1019.45 1019.53 1019.65 1019.81 1019.93 1020.05 1020.21 1020.33 1020.45 1020.61 1020.65
1004.53 1004.85 1005.17 1005.53 1005.93 1006.25 1006.57 1006.93 1007.21 1007.49 1007.77 1008.13 1008.45 1008.81 1009.21 1009.53 1009.85 1010.13 1010.45 1010.73 1011.05 1011.33 1011.61 1011.85 1012.09 1012.41 1012.73 1013.01 1013.25 1013.49 1013.77 1014.05 1014.25 1014.45 1014.61 1014.89 1015.17 1015.45 1015.73 1015.93 1016.13 1016.33 1016.49 1016.61 1016.81 1017.05 1017.29 1017.49 1017.73 1017.97 1018.21 1018.37 1018.57 1018.77 1018.93 1019.13 1019.33 1019.49 1019.57 1019.69 1019.85 1019.97 1020.09 1020.21 1020.37 1020.49 1020.57 1020.61 1020.69
1004.57 1004.93 1005.29 1005.65 1005.97 1006.33 1006.65 1007.01 1007.33 1007.57 1007.85 1008.21 1008.53 1008.93 1009.29 1009.65 1009.97 1010.29 1010.61 1010.89 1011.13 1011.37 1011.65 1011.93 1012.25 1012.53 1012.85 1013.13 1013.41 1013.69 1013.97 1014.21 1014.41 1014.61 1014.85 1015.09 1015.33 1015.65 1015.89 1016.09 1016.33 1016.49 1016.65 1016.77 1017.01 1017.21 1017.45 1017.65 1017.89 1018.09 1018.33 1018.57 1018.77 1018.93 1019.09 1019.25 1019.45 1019.65 1019.77 1019.93 1020.05 1020.17 1020.29 1020.37 1020.49 1020.53 1020.61 1020.69 1020.73
1004.61 1005.01 1005.33 1005.69 1006.05 1006.37 1006.73 1007.05 1007.37 1007.65 1007.93 1008.29 1008.65 1009.05 1009.41 1009.77 1010.09 1010.45 1010.77 1011.05 1011.29 1011.49 1011.77 1012.05 1012.33 1012.65 1012.93 1013.21 1013.49 1013.81 1014.09 1014.33 1014.61 1014.85 1015.05 1015.33 1015.53 1015.77 1016.01 1016.21 1016.45 1016.61 1016.77 1016.97 1017.17 1017.37 1017.57 1017.77 1018.01 1018.21 1018.49 1018.69 1018.93 1019.09 1019.33 1019.49 1019.65 1019.81 1019.97 1020.13 1020.25 1020.37 1020.45 1020.49 1020.61 1020.65 1020.73 1020.77 1020.85
1004.57 1004.97 1005.37 1005.73 1006.05 1006.41 1006.77 1007.13 1007.45 1007.73 1008.05 1008.41 1008.77 1009.17 1009.49 1009.81 1010.17 1010.53 1010.85 1011.13 1011.37 1011.65 1012.01 1012.33 1012.61 1012.89 1013.17 1013.41 1013.65 1013.93 1014.21 1014.53 1014.81 1015.05 1015.25 1015.49 1015.65 1015.85 1016.09 1016.37 1016.61 1016.81 1017.01 1017.17 1017.33 1017.53 1017.73 1017.93 1018.13 1018.37 1018.61 1018.89 1019.13 1019.33 1019.49 1019.65 1019.85 1020.01 1020.17 1020.33 1020.49 1020.57 1020.61 1020.69 1020.77 1020.85 1020.89 1020.93 1021.01
1004.37 1004.85 1005.33 1005.73 1006.05 1006.45 1006.77 1007.09 1007.45 1007.77 1008.13 1008.49 1008.89 1009.29 1009.65 1009.97 1010.29 1010.61 1010.93 1011.21 1011.49 1011.85 1012.21 1012.57 1012.85 1013.13 1013.41 1013.65 1013.93 1014.17 1014.41 1014.69 1014.97 1015.21 1015.45 1015.65 1015.77 1016.01 1016.29 1016.53 1016.81 1017.05 1017.21 1017.33 1017.49 1017.69 1017.89 1018.05 1018.29 1018.53 1018.77 1019.05 1019.29 1019.49 1019.65 1019.81 1020.01 1020.21 1020.37 1020.49 1020.69 1020.77 1020.85 1020.93 1020.97 1021.05 1021.05 1021.09 1021.13
1004.21 1004.65 1005.09 1005.57 1005.97 1006.37 1006.77 1007.13 1007.49 1007.89 1008.21 1008.57 1008.97 1009.37 1009.77 1010.09 1010.45 1010.77 1011.01 1011.25 1011.61 1012.05 1012.45 1012.77 1013.01 1013.25 1013.53 1013.81 1014.13 1014.37 1014.61 1014.81 1015.05 1015.33 1015.57 1015.77 1015.93 1016.17 1016.45 1016.73 1017.01 1017.21 1017.41 1017.53 1017.69 1017.89 1018.05 1018.21 1018.45 1018.65 1018.93 1019.21 1019.41 1019.65 1019.81 1019.97 1020.21 1020.41 1020.57 1020.77 1020.93 1021.01 1021.05 1021.09 1021.09 1021.13 1021.17 1021.21 1021.21
1004.17 1004.57 1005.01 1005.49 1005.93 1006.41 1006.85 1007.21 1007.57 1007.93 1008.29 1008.69 1009.09 1009.49 1009.81 1010.21 1010.57 1010.89 1011.13 1011.33 1011.69 1012.13 1012.57 1012.89 1013.17 1013.45 1013.73 1014.01 1014.33 1014.61 1014.81 1015.01 1015.17 1015.41 1015.65 1015.93 1016.13 1016.33 1016.57 1016.89 1017.21 1017.41 1017.61 1017.73 1017.89 1018.05 1018.21 1018.37 1018.61 1018.81 1019.05 1019.33 1019.49 1019.73 1019.93 1020.13 1020.37 1020.61 1020.77 1020.97 1021.09 1021.21 1021.25 1021.21 1021.21 1021.21 1021.21 1021.21 1021.21
1004.33 1004.65 1005.09 1005.57 1006.05 1006.49 1006.93 1007.33 1007.65 1008.05 1008.41 1008.81 1009.25 1009.61 1009.93 1010.33 1010.65 1010.97 1011.25 1011.49 1011.77 1012.13 1012.57 1012.93 1013.33 1013.65 1013.93 1014.21 1014.49 1014.77 1015.05 1015.25 1015.41 1015.61 1015.81 1016.05 1016.33 1016.49 1016.73 1017.05 1017.33 1017.57 1017.73 1017.89 1018.05 1018.21 1018.33 1018.53 1018.77 1018.97 1019.21 1019.41 1019.61 1019.81 1020.05 1020.25 1020.49 1020.77 1020.93 1021.09 1021.25 1021.33 1021.37 1021.37 1021.37 1021.37 1021.33 1021.29 1021.21
1004.61 1004.93 1005.33 1005.77 1006.21 1006.61 1007.05 1007.45 1007.81 1008.21 1008.53 1008.93 1009.33 1009.77 1010.09 1010.45 1010.81 1011.13 1011.45 1011.73 1012.01 1012.33 1012.69 1013.09 1013.49 1013.85 1014.09 1014.33 1014.61 1014.93 1015.25 1015.49 1015.69 1015.85 1016.05 1016.25 1016.53 1016.73 1016.93 1017.17 1017.49 1017.73 1017.89 1018.01 1018.17 1018.33 1018.49 1018.65 1018.89 1019.09 1019.33 1019.57 1019.77 1019.93 1020.13 1020.33 1020.61 1020.85 1021.05 1021.21 1021.33 1021.45 1021.53 1021.57 1021.53 1021.53 1021.53 1021.49 1021.37
1004.85 1005.21 1005.61 1005.93 1006.33 1006.73 1007.17 1007.61 1008.01 1008.37 1008.73 1009.09 1009.49 1009.89 1010.29 1010.61 1010.97 1011.33 1011.65 1012.01 1012.29 1012.57 1012.93 1013.29 1013.65 1013.97 1014.21 1014.49 1014.73 1015.05 1015.37 1015.69 1015.93 1016.17 1016.33 1016.49 1016.73 1016.93 1017.13 1017.33 1017.61 1017.81 1018.01 1018.13 1018.29 1018.45 1018.61 1018.77 1019.01 1019.21 1019.45 1019.73 1019.93 1020.05 1020.21 1020.41 1020.69 1020.97 1021.21 1021.37 1021.49 1021.53 1021.65 1021.73 1021.73 1021.73 1021.73 1021.73 1021.69
Wind_Speed
13 12 11 10 9 9 8 8 7 7 7 8 8 8 8 8 8 7 7 7 7 7 6 6 6 6 6 7 8 8 8 8 8 8 8 9 8 8 9 9 9 10 10 10 10 9 8 8 7 6 5 5 5 6 6 5 6 6 6 6 6 5 5 5 5 5 5 5 4
14 13 12 11 10 9 8 8 7 7 7 7 8 8 8 7 7 7 7 7 7 6 6 5 6 6 6 7 8 8 8 7 8 8 8 9 8 8 8 8 9 10 10 10 10 9 8 8 7 5 4 4 4 5 5 5 5 6 6 7 6 5 4 5 5 4 4 4 3
14 13 12 12 11 10 9 9 9 9 9 8 7 7 7 7 7 7 7 7 6 6 5 5 5 6 7 7 7 7 7 7 8 8 8 8 8 8 8 8 8 9 10 10 9 9 8 8 7 5 4 4 4 4 4 3 4 5 6 6 5 4 4 4 4 3 2 2 2
15 14 13 13 14 13 12 10 10 10 10 8 7 6 6 6 6 6 6 6 6 5 5 5 5 6 6 7 7 7 7 7 7 8 8 8 8 8 8 8 9 9 9 9 9 9 8 8 6 5 4 5 5 4 4 3 3 4 4 3 3 3 3 3 3 3 2 2 2
15 15 14 14 15 14 13 11 11 10 9 7 7 7 6 6 5 5 5 6 6 6 6 6 6 6 6 6 7 7 7 7 7 7 7 7 8 8 8 9 9 9 9 9 9 9 8 7 5 4 4 4 4 4 4 4 4 3 2 2 2 2 2 3 3 3 3 2 2
16 15 15 14 14 13 12 10 11 10 9 8 8 8 7 7 6 6 6 7 7 6 6 6 6 6 6 7 7 7 7 6 7 7 7 8 7 7 8 9 9 9 9 9 9 9 8 6 4 3 3 3 3 4 4 5 5 4 3 2 2 2 2 3 3 3 3 3 3
16 16 15 14 14 13 12 11 10 10 9 9 10 10 10 8 8 8 8 7 6 6 6 6 6 6 7 7 7 7 7 6 6 7 7 8 7 8 8 8 9 9 9 8 8 7 7 6 4 4 3 4 3 4 5 5 5 5 4 3 2 2 3 4 3 3 3 4 4
15 15 15 14 14 13 13 12 11 10 10 9 10 11 11 10 9 9 8 7 6 6 6 6 7 8 8 8 7 7 7 7 7 7 7 7 8 8 8 8 9 9 8 8 7 7 6 5 4 4 4 4 3 4 5 6 6 6 5 4 3 2 3 3 2 3 3 4 4
14 14 14 14 13 13 13 12 12 11 11 10 11 11 11 10 10 9 8 7 7 7 7 6 7 8 8 8 8 8 7 7 7 7 7 7 8 9 8 8 8 8 7 7 7 8 7 5 4 4 4 4 4 4 5 7 7 6 5 4 3 3 3 3 3 3 4 5 5
14 14 14 13 13 13 12 12 12 12 12 11 11 11 10 10 10 9 8 7 7 7 7 7 7 8 8 8 8 8 7 7 7 7 7 7 8 9 8 8 8 8 7 7 7 8 7 5 5 4 4 4 5 5 6 6 7 6 5 4 4 4 4 4 4 4 5 5 5
15 14 14 13 13 13 12 12 11 11 11 10 10 10 10 10 10 9 8 7 7 7 8 7 8 8 8 8 8 7 7 7 7 7 7 7 8 8 8 8 8 8 8 7 7 7 6 5 5 5 5 5 5 5 6 6 7 7 6 4 5 5 5 4 4 4 4 5 5
14 14 14 13 13 12 12 12 11 10 10 10 10 10 10 10 10 9 8 8 8 8 8 7 8 9 8 7 7 7 7 7 7 7 7 7 8 8 9 9 9 9 9 8 7 6 6 6 7 7 7 6 5 5 5 6 7 7 6 5 6 6 5 5 4 4 4 4 5
14 13 13 12 13 13 12 12 11 10 10 10 10 10 9 9 10 9 9 9 9 8 7 7 8 8 8 7 7 7 7 7 7 7 7 8 8 9 9 9 9 9 8 8 7 7 7 7 8 8 8 7 5 5 5 6 7 7 7 6 6 6 5 5 5 4 4 4 4
13 13 13 13 13 13 12 12 10 10 10 10 10 10 9 9 9 9 9 9 8 8 7 7 7 7 7 8 8 7 7 7 8 8 8 9 9 9 9 9 9 9 8 7 6 7 7 7 8 8 8 7 6 5 5 6 6 7 7 7 6 6 6 5 5 4 4 4 4
13 13 13 13 13 13 12 12 10 9 10 10 10 10 9 8 9 9 8 8 8 8 8 7 7 6 7 8 8 8 8 8 9 9 9 10 10 9 9 9 9 8 8 7 6 6 7 8 8 8 8 8 7 6 6 6 6 6 6 6 6 6 6 5 4 4 4 4 4
13 13 13 14 14 13 12 11 9 9 9 10 10 10 9 8 8 8 8 9 8 8 8 8 7 7 7 7 8 9 9 9 9 10 10 10 10 10 10 9 9 9 8 8 7 6 6 7 7 7 8 8 7 7 7 6 6 6 6 6 6 6 5 5 4 4 4 4 4
14 14 14 14 14 14 13 12 10 9 10 10 10 10 9 9 8 8 9 9 9 8 8 9 8 7 7 7 8 8 8 9 10 10 10 10 11 10 10 10 9 9 9 8 8 8 7 7 7 7 8 8 7 7 7 7 6 6 6 6 6 6 5 5 5 5 4 4 3
14 14 15 15 15 15 14 13 11 11 11 11 11 10 10 9 9 9 9 9 10 10 10 10 9 8 8 8 8 8 8 9 9 10 10 10 11 11 10 10 9 9 9 9 9 8 8 8 8 8 8 8 8 7 7 7 7 7 7 6 6 6 5 5 5 4 4 3 3
15 15 15 15 15 15 14 13 12 12 12 12 11 10 10 10 10 10 10 10 10 11 11 11 10 9 9 10 9 8 8 8 9 10 10 10 10 10 10 9 9 8 8 9 9 9 9 9 8 8 8 8 8 8 8 8 7 7 7 6 6 6 6 5 5 4 4 4 3
15 15 15 15 15 14 13 13 13 13 12 12 11 11 11 11 11 11 11 11 11 12 12 12 11 10 10 10 10 9 8 8 9 10 10 10 10 10 10 9 9 8 8 9 9 9 9 9 9 9 9 9 9 9 9 8 8 7 7 6 6 6 6 5 5 5 4 4 4
16 16 15 15 14 14 13 12 13 13 13 12 12 12 11 11 11 11 12 12 12 12 13 12 12 12 11 11 11 10 8 8 9 9 10 9 9 9 9 9 9 9 8 8 9 9 9 9 9 9 10 10 10 9 9 8 8 7 7 6 6 6 6 5 5 5 4 4 3
15 15 15 14 13 13 13 12 13 13 12 12 12 12 12 11 11 12 12 12 13 13 13 13 13 13 12 12 11 10 9 8 8 9 9 9 9 8 8 9 9 9 9 9 9 9 10 10 10 10 10 10 9 9 9 8 8 7 7 7 7 6 6 5 5 4 4 3 3
15 15 14 13 13 13 13 13 13 13 12 12 12 12 12 12 12 12 13 13 13 13 13 12 12 13 12 12 12 11 10 9 9 9 9 9 9 9 8 8 9 9 9 9 9 9 10 10 9 9 9 9 9 9 8 8 7 7 7 7 7 6 6 5 4 4 3 3 3
15 14 13 12 13 13 13 13 13 13 13 13 13 12 12 12 12 13 13 13 13 13 13 11 11 12 12 12 12 12 11 11 10 10 9 9 9 9 9 8 8 8 8 7 8 9 9 9 8 8 8 8 8 8 7 7 7 7 7 7 6 6 5 4 3 3 3 2 2
15 14 14 13 13 14 14 14 14 13 13 13 13 13 13 13 13 14 14 14 14 13 13 12 11 11 11 11 11 11 12 12 12 11 11 10 10 9 8 8 7 7 7 8 11 13 12 10 9 8 7 7 7 7 7 6 6 6 6 6 6 5 4 3 2 2 2 2 2
15 15 15 15 14 14 14 14 14 14 14 14 14 14 14 14 14 14 14 14 13 13 13 12 11 11 10 10 11 11 11 11 11 11 11 11 10 9 8 7 6 6 7 10 14 16 15 14 12 10 8 7 7 6 6 5 6 6 6 6 5 5 4 3 2 2 2 2 2
15 15 15 15 15 15 15 14 14 14 14 14 15 14 14 14 14 14 14 14 13 13 12 11 11 10 10 10 11 11 11 10 10 11 11 11 11 10 9 7 6 6 8 13 16 17 17 16 15 13 10 7 7 6 5 5 5 6 5 5 4 4 4 3 2 1 1 2 3
15 15 16 16 15 15 15 15 15 15 15 15 15 15 15 15 15 14 14 14 13 12 11 10 10 9 9 9 10 11 11 10 10 10 10 11 11 10 9 8 7 8 11 16 17 18 17 17 16 15 12 9 7 6 5 5 5 5 5 4 4 3 3 3 2 2 2 2 3
15 16 16 16 16 15 15 15 16 16 16 16 16 15 15 15 15 15 14 14 13 12 10 9 8 8 8 9 10 10 11 11 10 10 10 11 11 10 10 9 9 11 14 18 18 18 18 17 17 16 14 11 7 5 5 5 4 4 4 3 3 3 3 3 2 2 2 3 4
16 16 16 17 16 16 16 16 16 16 16 15 16 16 15 15 15 15 15 14 13 12 10 9 9 9 10 10 10 10 10 10 10 10 11 12 11 11 10 10 9 11 15 18 18 18 18 17 17 16 15 12 8 6 5 5 5 4 4 4 4 4 4 3 3 3 3 4 4
16 16 17 17 16 16 16 16 17 16 16 15 16 16 15 15 15 15 14 13 12 11 10 10 11 12 11 11 11 11 11 10 10 10 11 12 12 12 11 11 10 12 15 18 18 18 18 18 17 16 15 13 9 7 5 6 5 5 4 4 5 5 5 4 4 4 5 5 5
17 17 17 17 17 17 17 17 17 16 16 16 16 16 16 15 15 14 13 13 12 12 12 12 13 13 12 12 11 11 11 11 11 11 11 12 12 12 12 11 11 12 15 18 18 18 18 18 17 16 15 13 10 8 7 7 6 6 6 6 6 6 6 5 5 5 6 6 6
17 18 18 18 18 18 17 17 17 16 17 17 17 16 16 15 14 13 13 12 12 13 13 14 14 14 13 13 12 12 12 11 11 12 12 13 13 13 12 11 10 12 15 18 18 18 18 18 17 17 16 14 10 9 8 7 6 6 6 7 7 7 7 7 7 7 7 7 6
18 18 18 18 18 18 17 17 16 17 17 17 16 16 15 15 14 13 12 11 11 12 13 13 13 13 13 13 13 13 12 11 11 12 13 13 13 12 11 9 8 11 15 18 18 18 18 18 18 18 16 14 10 9 8 8 7 7 7 7 7 7 7 7 7 7 7 7 6
20 20 19 19 19 18 18 17 17 17 17 17 16 16 15 15 14 14 13 12 12 12 12 12 12 12 12 12 12 13 13 13 12 12 12 12 13 12 12 10 10 12 16 18 18 18 19 19 19 18 16 13 9 8 8 9 8 8 9 8 8 8 8 7 7 7 7 7 7
22 21 21 20 19 19 18 18 18 18 18 17 17 16 15 14 14 13 13 13 13 13 13 12 12 12 12 12 12 12 13 13 13 13 12 12 13 13 12 11 11 13 16 18 18 19 19 19 19 18 16 11 8 7 8 8 8 9 9 9 8 8 8 7 7 7 7 7 7
22 22 22 21 20 19 19 19 18 18 18 18 17 16 15 15 14 13 13 14 14 14 13 12 12 12 12 12 12 11 12 13 13 13 13 13 13 13 13 12 11 13 15 17 18 19 19 20 19 18 14 10 8 7 8 7 7 8 9 9 8 7 7 7 7 7 7 8 8
21 21 21 21 20 19 19 19 18 18 18 17 17 16 15 14 13 13 13 13 14 14 14 13 13 12 12 13 12 12 12 12 13 14 13 13 13 13 13 12 11 11 13 17 18 19 19 20 19 17 14 10 8 8 8 7 7 7 7 7 6 6 6 5 5 6 7 9 11
19 20 20 20 20 20 19 19 18 18 18 17 16 15 14 14 13 12 12 13 14 14 14 14 13 13 13 13 13 12 12 12 13 13 13 13 13 13 13 12 10 10 13 17 18 19 19 20 19 17 14 10 9 8 7 7 7 7 7 7 6 6 5 5 5 5 6 9 14
18 19 20 20 20 19 19 18 18 17 17 17 16 15 14 14 13 12 12 12 13 14 14 14 14 14 13 14 13 13 12 12 11 12 12 12 12 13 13 12 11 11 13 16 18 19 20 20 19 18 14 10 8 7 7 7 8 8 7 6 6 6 5 5 5 5 5 6 10
18 19 19 19 19 19 19 18 17 17 16 16 16 15 14 14 13 13 12 12 12 13 13 13 14 14 14 13 13 13 13 12 11 11 11 11 11 12 12 11 11 11 12 15 18 19 20 20 19 18 14 9 7 7 7 7 8 8 7 6 6 6 5 5 5 5 5 5 5
Wind_Direction
191 191 191 190 189 189 191 193 191 189 187 188 189 188 186 185 189 190 191 191 193 195 195 196 197 197 193 189 190 194 199 200 196 194 193 193 191 187 182 177 174 173 174 176 176 179 184 190 190 189 188 189 193 197 200 201 199 199 202 206 210 205 196 192 204 211 215 220 224
191 191 190 189 188 188 190 191 191 190 189 190 189 187 185 185 188 189 190 192 192 191 190 193 193 190 188 186 187 189 194 197 193 190 189 189 188 184 179 176 173 173 173 174 175 178 184 189 190 188 186 183 184 190 195 197 193 196 201 207 206 197 188 188 200 207 211 217 225
191 190 190 189 189 189 190 192 192 191 190 189 188 186 184 185 188 189 189 190 188 186 185 188 188 185 182 181 183 185 189 193 191 189 187 186 183 180 176 175 173 173 174 175 177 180 184 187 188 186 182 177 177 181 186 190 185 190 197 204 199 189 182 184 184 183 190 210 212
191 190 190 191 190 190 191 191 190 189 187 185 184 183 184 184 187 187 186 183 180 181 183 184 183 180 179 177 179 182 184 187 188 187 185 182 178 175 173 172 172 174 176 178 180 183 185 184 186 184 181 175 175 175 173 169 170 177 185 190 180 174 172 169 153 150 158 180 178
191 191 192 192 192 191 191 190 187 185 184 181 180 182 184 183 184 182 180 178 181 183 182 177 176 176 175 172 174 177 179 180 183 184 182 177 173 171 170 169 171 174 177 180 183 184 183 178 176 173 169 165 166 165 158 151 151 151 147 129 125 135 141 132 127 133 143 152 144
192 193 193 193 191 190 189 188 184 182 180 179 180 183 184 183 182 181 180 181 180 177 172 167 169 169 168 167 170 172 174 176 180 181 178 172 169 167 166 167 171 174 177 181 182 180 176 166 159 153 149 146 144 144 143 141 140 135 126 113 115 117 120 125 130 137 141 139 129
192 192 192 192 189 188 187 185 180 178 178 179 181 183 184 182 181 180 179 176 172 169 167 168 169 168 166 166 168 170 172 175 178 177 174 169 165 165 166 168 171 173 176 177 175 170 163 152 147 144 140 135 134 137 139 140 139 137 134 133 128 121 121 127 132 134 130 121 107
192 192 191 189 187 186 185 181 177 177 179 182 184 184 183 179 177 175 173 169 168 169 171 172 171 168 166 167 169 170 170 171 175 174 170 164 161 162 164 165 168 170 170 166 161 157 152 147 147 146 143 138 136 138 140 141 138 136 134 133 120 104 99 109 111 110 104 99 90
191 191 189 187 185 183 182 178 175 176 179 183 183 182 179 174 172 170 170 169 170 170 170 171 168 165 164 165 167 168 169 170 172 172 168 161 160 160 161 161 163 162 159 154 150 149 147 146 147 148 146 142 141 143 144 141 135 131 128 122 109 92 82 82 87 89 89 88 84
189 188 187 184 183 181 178 175 175 176 178 179 179 177 175 171 170 171 171 170 167 168 169 169 164 162 161 164 166 167 168 169 169 168 164 160 158 158 157 155 154 152 149 148 147 146 145 144 144 143 141 139 140 142 141 136 129 125 121 114 106 97 87 77 81 84 87 88 88
186 185 184 182 180 176 173 172 173 175 177 175 174 173 173 170 170 171 170 164 163 167 169 165 160 160 161 164 165 166 166 166 166 163 160 156 154 152 150 148 147 146 147 149 148 147 146 144 141 139 137 135 135 135 133 127 122 119 115 110 107 102 96 83 82 85 89 93 93
184 182 181 178 175 172 170 171 173 174 174 171 171 171 172 170 169 168 165 161 164 166 166 160 159 160 162 163 163 162 161 160 158 155 151 148 146 144 143 142 143 144 146 148 148 148 146 145 143 140 137 134 133 132 130 124 119 116 113 110 107 104 100 94 90 91 95 98 98
180 178 177 174 170 169 169 171 172 173 172 169 169 169 169 168 166 165 163 161 162 162 160 156 158 159 160 159 158 156 155 154 151 147 144 141 140 139 139 140 141 142 144 146 147 147 147 147 145 143 140 137 133 128 125 123 119 118 116 114 110 106 104 103 102 101 101 101 101
176 174 173 170 168 168 169 171 171 171 170 168 168 167 166 164 165 164 162 160 159 156 154 154 157 158 158 155 153 151 150 148 144 141 139 138 138 138 139 140 141 142 143 144 144 144 145 147 146 143 139 134 127 121 118 116 117 118 119 118 115 114 113 114 115 112 106 99 96
173 172 170 166 167 168 169 170 170 169 167 166 166 165 163 162 164 163 159 155 154 152 152 154 155 154 151 148 147 146 145 143 141 138 137 136 136 138 139 140 141 141 141 140 139 139 140 141 140 136 131 125 120 115 111 108 111 114 116 119 119 120 121 123 120 112 102 96 89
171 170 168 166 167 169 170 169 168 166 164 164 164 163 161 162 162 159 155 152 152 151 151 152 150 147 143 141 142 142 142 141 140 138 138 138 139 140 141 142 142 141 138 135 132 129 127 127 125 122 119 117 114 110 106 104 104 106 109 112 115 118 120 120 113 103 95 91 89
170 169 168 167 168 169 170 169 165 163 163 162 161 161 160 160 159 156 154 153 152 151 150 149 144 141 138 138 139 139 140 141 140 140 141 142 143 144 144 144 142 139 135 131 127 122 116 112 110 109 109 109 107 104 102 100 99 100 101 103 106 109 111 111 105 100 95 93 97
170 169 168 168 169 169 169 167 162 160 160 160 159 159 158 157 155 154 154 154 153 150 147 143 139 137 137 137 138 139 140 141 142 142 143 144 145 145 144 142 138 134 130 126 122 117 113 108 105 103 102 101 100 99 98 96 95 95 95 97 98 101 102 102 102 102 101 102 104
170 169 169 169 169 168 166 163 158 157 157 157 157 156 155 153 152 152 153 154 151 146 141 137 135 135 135 135 136 137 137 138 139 140 141 142 142 141 139 135 131 126 122 119 116 113 110 108 106 104 103 101 98 96 93 92 92 92 93 94 95 95 96 98 98 98 98 99 100
169 169 169 169 167 165 162 158 155 154 155 155 153 152 151 150 150 150 151 150 145 140 135 132 132 132 133 132 132 132 133 134 135 136 136 137 136 134 131 128 123 118 115 113 112 111 110 109 107 106 105 103 100 97 94 92 92 92 92 93 92 92 93 93 91 89 88 90 95
169 168 168 166 164 161 158 154 152 152 152 151 149 148 148 147 148 148 147 143 138 134 132 131 132 132 132 131 130 130 130 130 131 131 131 129 127 126 124 121 117 113 111 110 111 111 110 109 108 107 105 103 102 100 99 97 95 94 93 92 90 88 87 86 84 85 86 89 95
168 166 163 162 159 156 152 150 150 150 149 148 146 145 144 145 145 143 139 135 132 131 131 132 133 133 134 133 131 130 128 126 125 124 124 121 120 118 117 116 114 113 112 112 112 111 109 108 107 106 105 104 103 103 102 102 100 97 95 93 90 86 83 83 85 88 92 95 100
164 161 158 156 153 150 148 148 148 147 147 144 142 142 142 141 138 136 133 131 131 131 132 133 134 134 134 133 130 128 126 123 119 117 115 116 114 113 112 112 113 114 114 115 114 112 109 106 104 103 103 104 105 105 104 104 104 103 100 96 91 88 85 86 91 94 96 94 93
160 157 154 151 150 149 147 147 147 146 144 142 140 139 138 135 133 131 131 131 132 133 133 133 133 132 130 129 128 127 125 123 119 116 114 113 112 111 110 109 110 112 113 113 115 115 113 110 107 105 105 105 105 105 105 106 106 106 104 100 96 93 92 92 96 95 91 83 78
156 153 150 147 149 149 148 147 147 145 143 139 138 136 134 133 132 132 132 133 133 133 131 129 128 127 126 126 126 126 125 124 122 119 117 114 111 109 108 106 107 107 108 110 114 115 114 114 113 111 108 107 105 104 103 103 105 105 104 104 103 103 103 103 96 82 69 60 53
153 150 147 146 148 148 148 147 145 142 139 136 135 134 133 133 133 133 133 133 132 130 127 126 125 125 125 126 126 125 124 123 122 121 119 115 112 109 106 105 104 104 108 114 116 116 115 114 113 112 110 107 106 105 102 99 99 100 102 106 110 116 119 117 102 69 40 29 31
150 148 146 145 147 147 146 144 141 137 135 135 135 135 135 135 134 133 132 130 128 126 124 124 124 125 126 126 125 124 122 121 120 119 118 116 113 109 107 104 104 107 113 118 118 117 116 115 114 112 110 107 108 108 106 103 98 98 102 108 115 121 125 124 115 92 44 20 28
148 146 145 144 145 145 143 139 137 136 136 136 136 136 135 135 133 131 129 127 125 124 123 124 126 126 126 124 123 122 120 118 117 116 114 112 110 108 107 105 106 112 118 121 120 119 118 118 116 115 114 112 111 110 108 107 104 104 105 110 111 112 112 111 106 97 73 44 37
146 144 144 144 143 142 139 137 137 137 137 137 136 135 134 132 130 129 127 127 126 127 128 129 128 126 123 122 120 117 115 114 114 112 110 108 107 106 106 107 109 115 120 122 122 121 121 121 120 120 119 118 116 112 110 108 107 106 104 102 95 92 89 85 80 77 73 66 55
144 143 143 142 141 139 138 138 137 137 137 136 135 133 132 130 130 129 129 129 130 130 131 130 127 124 122 122 118 115 113 112 112 112 111 109 108 107 107 109 112 117 121 122 122 122 123 123 123 123 122 121 116 111 105 100 98 96 93 89 81 78 77 75 75 76 77 78 73
144 143 141 140 138 138 138 138 137 137 136 135 134 132 131 130 131 131 131 131 130 128 126 123 121 120 119 118 116 114 113 113 112 112 112 111 110 109 109 110 113 117 121 123 122 123 124 124 124 123 122 120 114 107 99 93 89 86 83 80 74 71 71 73 74 80 87 92 89
143 142 140 138 138 138 138 138 137 136 135 133 132 131 131 131 131 131 130 129 127 125 123 121 119 118 116 114 113 113 113 114 114 113 113 112 111 111 110 111 113 117 121 123 123 124 124 124 123 121 117 112 104 97 92 90 86 82 78 75 73 73 74 80 83 88 92 97 96
143 141 140 139 139 139 139 138 137 135 134 132 131 130 130 129 129 128 127 127 126 126 125 123 122 121 119 117 115 114 113 113 113 113 112 112 112 111 111 111 113 118 122 124 124 125 124 123 120 115 110 104 98 93 89 88 85 82 78 76 77 80 84 89 92 93 93 92 92
143 142 141 140 140 139 138 138 136 134 132 130 129 129 129 128 127 127 127 127 126 124 123 122 121 121 121 120 118 117 115 113 112 112 112 112 112 111 111 111 114 121 125 126 126 125 124 121 116 112 107 101 96 92 89 88 86 85 83 82 81 82 83 85 86 86 86 85 84
145 143 142 141 141 140 138 137 135 133 131 129 128 128 128 127 127 128 127 125 122 118 116 114 114 114 114 115 116 116 115 114 113 113 113 113 112 111 110 111 115 122 126 127 127 125 123 119 115 111 107 101 97 94 92 91 89 88 87 86 82 79 77 77 76 76 77 78 79
146 145 143 142 141 139 138 136 135 133 131 129 128 128 127 127 126 126 124 121 117 115 113 112 111 111 111 112 113 114 116 117 116 115 114 114 112 111 111 112 116 122 126 128 127 125 122 119 115 112 108 104 100 97 95 94 92 90 88 86 83 79 78 78 77 76 76 76 77
147 145 143 140 139 138 137 136 135 133 131 130 129 128 127 126 125 124 123 120 117 116 115 115 114 114 114 114 114 116 118 119 118 117 116 115 114 114 114 114 117 122 126 128 127 125 122 119 116 114 110 106 104 101 99 96 95 92 89 86 82 79 78 81 82 81 81 80 78
143 141 138 137 137 137 137 136 135 133 132 130 129 128 126 125 125 125 124 122 120 119 118 116 115 115 115 115 114 115 116 117 118 118 117 116 116 116 116 116 118 122 126 128 127 125 123 120 118 116 114 110 109 107 104 101 98 96 92 88 82 74 70 75 78 81 83 84 84
137 135 134 134 135 136 136 136 134 132 131 129 127 126 125 125 125 124 124 122 121 120 119 117 116 116 116 116 114 114 114 114 116 116 117 117 118 118 118 118 119 122 125 128 127 125 123 121 119 118 116 112 111 110 108 106 103 99 96 91 85 75 66 64 65 69 76 82 86
134 133 134 134 135 135 135 134 132 130 129 127 126 126 125 123 122 121 119 118 117 117 117 116 117 117 117 116 115 114 113 111 112 113 114 116 117 118 119 119 120 122 124 126 126 125 123 122 120 118 116 111 111 111 110 109 105 101 98 94 90 82 72 62 60 57 59 64 78
134 134 134 134 134 134 132 131 129 128 126 125 125 124 123 121 119 118 116 115 115 115 115 116 117 118 117 116 115 113 112 109 108 108 110 112 114 116 117 118 120 121 123 125 125 125 123 122 121 120 118 114 113 112 111 110 106 103 100 96 92 88 81 71 63 56 49 42 51